Weather in Gillam

Canada     56°20′50″N   94°42′18″W
temp.,
°C
wind,
m/s
gust,
m/s
humid.,
%
clouds,
%
prec.,
mm/h
press.,
hPa
HPBL,
m
11 april, sun
sun1101:00−7nne378789 0.1 1018364
04:00−10nne378435 0.0 1019352
07:00−12nne488150 0.0 1022364
10:00−9nne4773100 0.0 1024542
13:00−5nne5767100 0.0 1025758
16:00−4nne585897 0.0 1026762
19:00−6nne51168100 0.0 1028619
22:00−9ne51275100 0.0 1031531
12 april, mon
mon1201:00−11nne51276100 0.0 1031478
04:00−12nne51377100 0.0 1032447
07:00−12nne51475100 0.0 1033469
10:00−10nne61267100 0.0 1034525
13:00−8nne61263100 0.0 1033591
16:00−7nne61271100 0.1 1034594
19:00−8nne61579100 0.3 1035550
22:00−9nne61575100 0.0 1036544
13 april, tue
tue1301:00−10nne61573100 0.0 1036543
04:00−10nne61669100 0.0 1036527
07:00−11nne61765100 0.0 1038534
10:00−9nne7165894 0.0 1039588
13:00−6ne71253100 0.0 1039690
16:00−6ne61052100 0.0 1040722
19:00−8ne51268100 0.0 1041571
22:00−11ne51378100 0.0 1042457
14 april, wed
wed1401:00−12ne4118295 0.0 1042368
04:00−13ne310845 0.0 1042315
07:00−14ne388211 0.0 1043253
10:00−9ene355660 0.0 1042384
13:00−3ene354266 0.0 1040616
16:00−1e344583 0.0 1038694
19:00−3e3563100 0.0 1037504
22:00−6e3784100 0.0 1037288
15 april, thu
thu1501:00−6ese2589100 0.0 1036157
04:00−7se1393100 0.0 1036102
07:00−7se2491100 0.0 1035113
10:00−3se2355100 0.0 1034365
13:000se2339100 0.0 1033677
16:00+2sse223593 0.0 1032875
19:00+1ese1151100 0.0 103140
22:00−2e2471100 0.0 103196